Location: Cowley
(49.5667°N, 114.0667°W)
Time: 11:36:50
(UTC+00:00)

Envisat - Pass Details

Date: 08 December 2021
Orbit: 764 x 766 km, 98.2° (Epoch: 25 January)

Event Time Altitude Azimuth Distance (km) Brightness Sun altitude
Rises 13:02:06 0° 12° (NNE) 3,247 6.3 -21.3°
Reaches altitude 10° 13:04:25 10° 10° (N) 2,316 5.5 -20.9°
Maximum altitude 13:09:30 71° 288° (WNW) 812 2.9 -20.1°
Drops below altitude 10° 13:14:32 10° 205° (SSW) 2,298 5.3 -19.3°
Sets 13:16:50 0° 203° (SSW) 3,219 6.1 -18.9°
